sat.trackr.live / text

‹ back to catalog

GSAT0215 (GALILEO 19)

NORAD 43055 · 2017-079A

PAYLOAD ACTIVE UNKNOWN

§ Identity

Operator
Country
ESA
Launch date
2017-12-12
Launch site
FRGUI
Launch vehicle
Mass (kg)
RCS (m²)

Purposes: earth_obs, nav

External: N2YO · Heavens-Above · Gunter

§ Orbital elements

Epoch: 2026-05-25T03:20:00.136608Z

Period
844.70 min
Inclination
55.0795°
Eccentricity
0.0003324
Mean motion
1.70474628 rev/d
Perigee alt
23,212.3 km
Apogee alt
23,231.9 km
Semi-major
29,600.2 km
B*
0.0000e+0
RAAN
222.1411°
Arg perigee
263.2184°
Mean anomaly
96.7978°
Rev number
5,259

§ Raw data

GSAT0215 (GALILEO 19)1 43055U 17079A   26145.13889047 -.00000009  00000+0  00000+0 0  99972 43055  55.0795 222.1411 0003324 263.2184  96.7978  1.70474628 52597

JSON: /api/v1/satellites/43055 · /tle

For live sub-satellite position, see the globe view (requires WebGL).

§ Visibility from observer

Set your observer location to see the next 7 days of passes ≥ 10°. The values pass through the URL so the page stays shareable.

No JS? Fill the form by hand. The geolocation button needs JavaScript.